L M Clayton Airport
KOLF : rendu visible

Aérodrome :











RETROUVEZ-NOUS SUR...

 
LOGIN :

S'inscrire | Disclaimer

   EN    FR    IT 

 









Légende :    VFR   VFR Marginal   IFR   IFR Intensif   IFR Très Intensif
Visi : 
Plafond : 
>= 8 km
>= 3000ft
5 à 8 km
1000 à 3000 ft
1500m à 5 km
500 à 1000 ft
800 à 1500m
200 à 500 ft
< 800m
< 200 ft
Symboles :   Orages  Brouillard  Fortes neiges  Fortes précipitations  Vent > 20 kt






- Altitude de l'aérodrome : 1986 ft


KOLF - L M Clayton

DERNIER METAR :
  • 250553Z AUTO 23003KT 10SM OVC110 12/08 A3003 RMK AO2 SLP175 60000 T01170078 10144 20111 51006

METARs EXPIRÉS :
  • 250453Z AUTO 24005KT 10SM OVC110 12/08 A3002 RMK AO2 SLP171 T01170078
  • 250353Z AUTO 00000KT 10SM OVC110 12/08 A3002 RMK AO2 SLP173 T01220078

TAF KOLF
Valide du 25 à 06h jusqu'au 26 à 06h UTC


250520Z 2506/2606 VRB03KT P6SM VCSH OVC100
FM251000 VRB03KT P6SM SCT100
FIR KZLC / Amérique du Nord



MET'MAP, la Météo Aéronautique d'un coup d'oeil ! - Copyright ORBIFLY Décembre 2007 - Disclaimer

ORBIFLY MET'MAP TEAM :

Programmation & Développement : Alexandra Zaïnal
Sur une idée originale de : Baudouin d'Aumeries
Assistance à la programmation : Marc-Olivier Méhu
Soutien technique & logistique : Manuel Goepfert

Contact : metmap@orbifly.com




SOURCES & CREDITS :

   NOAA       Earth
Advisory